Regional Weather Roundup
Issued by NWS

Home | Current Version | Previous Version | Text Only | Print | Product List | Glossary On
Versions: 1 2 3 4 5 6 7 8 9 10 11 12 13 14 15 16 17 18 19 20 21 22 23 24 25 26 27 28 29 30 31 32 33 34 35 36 37 38 39 40 41 42 43 44 45 46 47 48 49 50
000
ASUS43 KMKX 240000
RWRWI

WISCONSIN REGIONAL WEATHER ROUNDUP
NATIONAL WEATHER SERVICE MILWAUKEE/SULLIVAN WI
700 PM CDT THU OCT 23 2014

NOTE: "FAIR" INDICATES FEW OR NO CLOUDS BELOW 12,000 FEET WITH NO
SIGNIFICANT WEATHER AND/OR OBSTRUCTIONS TO VISIBILITY.

WIZ001-002-006>008-014>016-023>028-240100-
NORTHWEST WISCONSIN

CITY           SKY/WX    TMP DP  RH WIND       PRES   REMARKS
SUPERIOR ARPT  CLEAR     48  47  95 S6        29.94S
ASHLAND        CLOUDY    50  48  93 S5        29.97S
6HR MIN TEMP:  50; 6HR MAX TEMP:  54;

HAYWARD        CLOUDY    51  48  89 S6        29.99R
6HR MIN TEMP:  50; 6HR MAX TEMP:  53;

SIREN          CLEAR     52  49  90 SE3       29.97R
CUMBERLAND     CLEAR     48  46  93 SE5       29.98S
RICE LAKE      CLOUDY    51  48  92 SE7       30.01S
CHETEK         CLOUDY    51  50  95 SE3       30.01R
LADYSMITH      CLOUDY    49  49  97 CALM      30.03R FOG
EAU CLAIRE     NOT AVBL
MENOMONIE      CLOUDY    53  51  94 SE5       30.01S
NEW RICHMOND   CLEAR     52  50  92 SE7       29.99R
OSCEOLA        CLEAR     55  51  85 SE7       30.00R
$$

WIZ003>005-009-010-017-018-240100-
NORTH CENTRAL WISCONSIN

CITY           SKY/WX    TMP DP  RH WIND       PRES   REMARKS
MANITOWISH WTR FOG       45  45 100 SW5       29.99S VSB 3/4
ARBOR VITAE    FOG       45  44  96 S3        30.00S VSB 1/2
WOODRUFF       FOG       45  44  96 S3        30.00S VSB 1/2
RHINELANDER    CLOUDY    44  44 100 SW5       30.02R FOG
6HR MIN TEMP:  44; 6HR MAX TEMP:  45; 6HR PCP:  0.04;

EAGLE RIVER    CLOUDY    44  44 100 CALM      30.00R FOG
LAND O LAKES   CLOUDY    45  45  99 SW5       30.01R FOG
PHILLIPS       CLOUDY    46  46 100 CALM      30.00S FOG
TOMAHAWK       CLOUDY    45  44  97 CALM      30.02R FOG
MEDFORD        FOG       46  45  99 S3        30.02R VSB 1/4
MERRILL        CLOUDY    46  46 100 CALM      30.02R FOG
$$

WIZ029-030-035-036-043>047-240100-
CENTRAL WISCONSIN

CITY           SKY/WX    TMP DP  RH WIND       PRES   REMARKS
WAUSAU         FOG       46  46 100 S5        30.02R VSB 1
6HR MIN TEMP:  45; 6HR MAX TEMP:  47; 6HR PCP:  0.02;

MOSINEE        FOG       46  46 100 VRB6      30.03S VSB 1/2
MARSHFIELD     FOG       47  46  97 S5        30.02R VSB 1/4
6HR MIN TEMP:  46; 6HR MAX TEMP:  48; 6HR PCP: TRACE;

STEVENS POINT  CLOUDY    44  44  99 S5        30.03S FOG
WAUPACA        LGT RAIN  49  48  96 CALM      30.04S
WAUTOMA        CLOUDY    46  46 100 CALM      30.04S FOG
WISC RAPIDS    CLOUDY    47  46  97 CALM      30.05R FOG
6HR MIN TEMP:  46; 6HR MAX TEMP:  47; 6HR PCP:  0.01;

CAMP DOUGLAS   NOT AVBL
$$

WIZ011>013-019>022-031-037>040-048>050-240100-
NORTHEAST WISCONSIN

CITY           SKY/WX    TMP DP  RH WIND       PRES   REMARKS
ANTIGO         FOG       43  43 100 S3        30.03R VSB 1/4
SHAWANO        CLOUDY    49  47  93 CALM      30.04F FOG
OCONTO         CLOUDY    49  48  98 CALM      30.04S
STURGEON BAY   CLOUDY    48  45  87 S8        30.06R
6HR MIN TEMP:  48; 6HR MAX TEMP:  55;

GREEN BAY      CLOUDY    49  48  97 CALM      30.05S FOG
6HR MIN TEMP:  49; 6HR MAX TEMP:  54; 6HR PCP:  0.07;

MANITOWOC      NOT AVBL
APPLETON       NOT AVBL
CLINTONVILLE   LGT RAIN  46  45  93 S3        30.04S
OSHKOSH        CLOUDY    49  48  97 CALM      30.04S FOG
6HR MIN TEMP:  49; 6HR MAX TEMP:  53; 6HR PCP:  0.20;

$$

WIZ032>034-041-042-053>061-240100-
SOUTHWEST WISCONSIN

CITY           SKY/WX    TMP DP  RH WIND       PRES   REMARKS
LA CROSSE      CLOUDY    50  48  93 SE6       30.02S FOG
6HR MIN TEMP:  50; 6HR MAX TEMP:  50; 6HR PCP: TRACE;

SPARTA         CLOUDY    47  47  99 CALM      30.05R FOG
VIROQUA        CLOUDY    47  47 100 CALM      30.03S VSB 1/2
BOSCOBEL       CLOUDY    50  48  93 CALM      30.04F FOG
6HR MIN TEMP:  48; 6HR MAX TEMP:  51; 6HR PCP:  0.02;

PRAIRIE DU CHI CLOUDY    50  48  93 CALM      30.03F FOG
PLATTEVILLE    CLOUDY    50  49  95 CALM      30.05R
$$

WIZ056-057-062-063-064-067-068-240100-
SOUTH CENTRAL WISCONSIN

CITY           SKY/WX    TMP DP  RH WIND       PRES   REMARKS
REEDSBURG      CLOUDY    47  46  98 SW3       30.03S
BARABOO/DELLS  CLOUDY    47  46  94 CALM      30.04S FOG
LONE ROCK      NOT AVBL
MINERAL POINT  CLOUDY    52  48  87 SW3       30.04R FOG
MADISON        CLOUDY    52  49  89 CALM      30.04S
6HR MIN TEMP:  50; 6HR MAX TEMP:  52; 6HR PCP:  0.09;

MIDDLETON      CLOUDY    52  50  93 CALM      30.04S
WATERTOWN      CLOUDY    51  51 100 CALM      30.04R
MONROE         CLOUDY    50  50 100 S7        30.04S
JANESVILLE     CLOUDY    52  48  87 S8        30.05S
$$

WIZ051-052-058>065-066-070>072-240100-
SOUTHEAST WISCONSIN

CITY           SKY/WX    TMP DP  RH WIND       PRES   REMARKS
MILWAUKEE      CLOUDY    52  48  86 E5        30.06S
6HR MIN TEMP:  51; 6HR MAX TEMP:  58; 6HR PCP:  0.10;

WAUKESHA       CLOUDY    54  45  71 CALM      30.06S
MILWAUKEE/TIMM CLOUDY    52  48  87 CALM      30.06S
RACINE         LGT RAIN  54  48  80 CALM      30.07S
6HR MIN TEMP:  54; 6HR MAX TEMP:  58; 6HR PCP:  0.01;

BURLINGTON     LGT RAIN  49  46  90 CALM      30.06R
KENOSHA        RAIN      55  45  68 S12       30.05S
6HR MIN TEMP:  55; 6HR MAX TEMP:  61; 6HR PCP:  0.01;

FOND DU LAC    CLOUDY    50  47  89 CALM      30.05R
6HR MIN TEMP:  49; 6HR MAX TEMP:  54; 6HR PCP:  0.16;

SHEBOYGAN      RAIN      49  47  93 SE8       30.05F FOG
6HR MIN TEMP:  49; 6HR MAX TEMP:  56; 6HR PCP:  0.13;

WEST BEND      CLOUDY    50  45  81 CALM      30.04F
JUNEAU         CLOUDY    49  48  94 SE5       30.05S
$$

LSZ147-162-240100-
LAKE SUPERIOR

STATION/POSITION TIME  TEMP    WIND        PRES    WAVE
                       AIR SEA DIR/SP/G            HT/PER
                 (UTC) (F)     (DEG/KT/KT) (MB)    (FT/S)
W MID LAKE BUOY  2250   47 46  220/  6/  6 1014.8F   1/ 3
DEVILS ISLAND    2300   51     170/  4/  4 1014.8S
PORT WING        2340   52     160/  4/  7 1014.6R
SAXON HARBOR     2300   54      CALM  /  7 1014.9S
$$

LMZ867-665-643>646-240100-
LAKE MICHIGAN

STATION/POSITION TIME  TEMP    WIND        PRES    WAVE
                       AIR SEA DIR/SP/G            HT/PER
                 (UTC) (F)     (DEG/KT/KT) (MB)    (FT/S)
CHAMBERS ISLAND  2300   50     150/  6/ 11 1017.6S
N MID LAKE BUOY  2250   51 51  190/ 17/ 21 1017.7F   3/ 5
NORTHPORT PIER   2300   50     170/  3/ 10 1017.6S
SISTER BAY       2313          160/ 10/ 13   N/A
ALGOMA LAKESHORE 2311          230/ 15/ 17   N/A
KEWAUNEE LAKESHO 2300   51     190/ 11/ 13 1016.8F
SHEBOYGAN LAKESH 2300   50 51  180/  8/  9 1018.4F
PORT WASHINGTON  2300   52     190/  6/  9 1018.3F
ATWATER BUOY     2300   52     180/  8/  8 1018.9R
MILWAUKEE LAKESH 2300   52     150/  4/  5   N/A
S MID LAKE BUOY  2250   55 54  170/ 12/ 14 1018.6F   2/ 4
KENOSHA   LAKESH 2300   54     160/  7/  9 1017.3F
$$

TC  - TEMPERATURE IN CELSIUS
VSB - VISIBILITY IN STATUTE MILES
WCI - WIND CHILL INDEX
HX  - HEAT INDEX




USA.gov is the U.S. government's official web portal to all federal, state and local government web resources and services.